Temp
20 20 20 20 20 20 20 20 20 20 20 20 21 21 21 21 21 21 21 21 21 21 20 20 20 20 20 20 20 20 20 20 20 20 18 16 15 15 16 17 17 17 17 17 17 16 16 16 16 16 16 16 16 16 16 16 16 16 16 16 16 16 16 15 15 15 15 15 15 15 15 15 15 15 14 14 14 14 14 15 15 14 14 15 15
19 20 20 20 20 20 20 20 20 20 20 20 20 20 20 20 20 20 21 21 21 20 20 20 20 20 20 20 20 20 20 20 20 20 18 16 15 15 16 17 17 17 17 17 17 16 16 16 16 16 16 16 16 16 16 15 15 16 15 15 15 15 15 15 15 15 15 15 15 15 15 15 15 15 14 14 14 14 14 14 15 15 14 14 15
19 19 19 19 20 20 19 20 20 19 20 20 20 20 20 20 20 20 20 20 20 20 20 20 20 20 20 20 20 19 19 19 19 19 19 17 16 15 15 16 16 16 17 17 16 16 16 16 15 15 15 15 15 15 15 15 15 15 15 15 15 15 15 15 15 15 15 15 15 15 15 15 15 15 15 15 14 14 14 14 14 15 14 14 14
18 19 19 19 19 19 19 19 19 19 19 19 19 19 19 19 19 19 19 20 20 20 20 20 20 20 20 19 19 19 19 18 18 18 18 18 17 16 16 15 15 16 16 16 16 16 15 15 15 14 14 15 15 15 15 15 14 14 14 14 14 14 14 14 14 15 15 15 15 15 15 15 15 15 15 15 15 14 14 14 14 14 15 14 14
18 18 19 19 19 19 19 19 19 19 19 19 19 19 19 19 19 19 20 20 20 20 20 20 20 19 19 19 18 18 18 18 17 17 17 17 17 16 16 15 15 15 15 15 15 15 14 14 14 13 13 13 14 14 14 14 13 13 13 13 14 13 13 13 14 14 14 14 14 14 14 15 15 15 15 15 15 15 15 14 14 14 14 15 15
18 18 19 19 19 19 19 19 19 18 18 19 19 19 19 19 20 20 20 20 20 20 20 20 19 18 18 18 18 17 17 17 17 16 16 16 16 16 15 15 14 14 14 14 14 14 13 13 13 13 13 13 12 13 13 13 12 12 12 12 13 13 13 13 13 13 13 13 14 14 14 14 14 14 14 14 15 15 15 15 14 14 14 14 15
18 18 19 18 19 19 19 19 18 19 18 18 19 19 19 19 19 19 20 20 20 19 19 19 18 18 17 17 17 17 17 16 16 16 16 16 15 15 14 14 14 13 13 13 13 13 13 13 13 13 13 12 12 11 11 12 12 12 12 12 12 13 13 13 13 13 13 13 13 13 13 13 13 14 14 14 14 14 15 15 15 14 14 14 14
18 19 19 18 19 19 19 18 18 18 18 18 19 19 19 19 18 18 19 20 20 19 18 18 17 17 16 16 16 16 16 16 16 16 15 15 15 14 14 13 13 13 13 13 13 13 13 13 13 13 13 13 12 11 11 11 11 11 11 11 11 12 12 12 13 13 13 13 12 12 12 12 13 13 13 13 13 14 14 14 14 15 15 14 14
18 19 19 19 19 19 18 18 18 18 18 18 18 18 18 18 18 17 18 19 19 19 18 17 17 16 16 16 16 16 16 16 15 15 15 14 14 14 13 13 13 13 12 12 12 12 13 13 13 12 13 13 12 12 11 11 10 10 10 10 10 10 11 12 12 12 12 12 12 12 12 12 12 12 12 13 13 13 13 13 13 14 14 14 14
18 18 18 18 19 18 18 18 18 18 18 18 18 18 18 18 18 17 17 18 19 19 18 17 16 16 15 15 15 15 15 15 15 15 14 14 14 13 13 13 13 12 12 12 12 12 12 12 12 12 12 12 12 12 12 11 10 10 10 10 9 9 10 10 11 11 11 11 11 12 11 11 11 11 12 12 12 12 12 12 12 13 14 14 14
18 18 18 18 18 18 18 18 18 18 18 18 18 18 17 17 17 17 17 16 17 18 17 16 16 15 15 14 14 15 14 14 14 14 14 14 14 14 13 13 12 12 12 12 11 11 11 11 12 12 12 12 12 12 11 11 11 10 9 10 9 9 9 9 10 10 10 10 11 11 11 11 11 11 11 11 11 11 11 12 12 13 13 14 14
17 18 18 18 18 18 18 18 18 18 18 18 18 18 17 17 17 17 17 16 16 17 17 16 16 15 14 14 14 14 14 14 14 14 14 14 14 14 13 13 12 12 11 11 11 11 11 11 11 11 11 11 11 11 10 10 10 10 9 10 9 9 9 9 9 9 9 9 10 10 10 10 10 10 11 11 11 11 11 11 12 12 12 13 14
17 17 17 18 18 18 18 17 17 17 17 17 17 16 16 17 16 16 17 16 16 17 16 16 16 15 15 14 13 13 13 14 14 14 14 14 13 13 13 13 12 12 12 12 11 11 11 11 11 11 11 11 11 10 10 9 10 9 9 9 9 9 8 8 8 9 9 9 9 9 9 9 9 10 10 10 10 10 10 11 11 12 12 12 13
17 17 17 17 18 18 17 16 16 16 16 16 16 16 16 16 16 16 16 16 16 16 16 16 17 17 16 15 14 13 13 13 14 14 14 14 14 13 13 13 13 12 12 12 12 12 11 11 11 10 10 11 11 11 10 10 9 8 8 9 9 9 8 8 8 8 8 8 8 9 8 8 8 9 9 9 9 9 10 10 11 11 11 11 12
16 17 17 17 16 16 16 15 15 16 16 16 15 15 16 15 16 16 17 16 15 15 15 16 17 18 18 17 15 14 14 14 14 13 13 13 14 14 13 13 13 12 12 12 12 11 11 11 10 10 10 10 10 10 10 10 9 8 8 9 9 9 8 8 8 8 8 8 8 8 8 8 8 8 8 9 9 8 9 9 10 11 11 11 11
16 16 16 16 16 16 16 15 15 15 15 16 15 15 15 15 15 16 17 17 16 14 14 14 15 17 18 19 18 17 16 15 14 14 13 13 13 13 13 13 13 13 13 12 12 11 11 11 10 9 9 9 10 10 10 10 9 9 8 9 9 9 9 9 8 8 8 8 8 8 8 8 8 8 8 8 8 8 8 8 9 10 10 10 10
16 16 16 15 15 15 15 15 14 14 15 15 14 14 14 15 15 15 16 17 16 14 13 13 13 15 16 18 19 20 18 16 15 14 14 14 14 13 13 13 13 13 13 12 12 12 11 11 10 10 9 9 9 10 10 9 9 9 9 8 9 9 9 9 9 8 8 8 7 8 8 8 8 8 8 8 8 8 8 8 8 8 9 9 9
15 15 15 14 14 14 14 14 14 14 14 14 14 14 14 14 14 15 15 15 16 15 14 13 13 14 14 15 16 17 18 17 17 15 14 14 14 13 13 12 12 12 12 12 12 11 11 11 11 10 10 9 9 9 10 9 9 9 8 8 8 8 8 8 8 8 8 8 8 7 7 8 8 8 8 8 8 8 7 7 7 8 8 8 8
14 14 14 14 14 14 13 14 14 13 13 13 13 13 14 14 14 14 14 14 15 16 15 14 14 14 13 14 14 14 16 17 17 17 16 14 13 13 13 12 12 12 12 12 12 11 10 11 11 11 10 10 10 9 9 9 9 8 8 8 8 8 8 8 8 8 8 8 8 7 7 7 7 7 8 8 8 8 7 7 7 7 8 8 8
14 14 14 13 13 13 13 13 13 13 13 13 13 13 13 13 13 13 13 13 14 15 15 15 15 14 13 14 14 14 14 14 16 17 18 16 14 13 12 11 11 11 11 11 11 11 10 10 11 11 11 10 10 10 10 9 9 9 8 8 8 8 8 8 8 8 8 8 8 8 7 7 7 7 7 8 8 7 7 7 7 7 7 7 7
14 13 13 13 13 13 13 13 13 13 13 13 13 13 13 13 13 12 12 12 12 13 13 14 14 14 14 14 14 14 14 14 14 16 17 17 16 15 14 12 12 11 11 11 11 11 11 11 11 11 11 11 10 10 10 9 9 8 8 8 8 8 8 7 7 8 7 7 8 8 7 6 6 7 7 7 7 7 7 7 7 7 7 7 6
13 13 13 13 12 12 12 12 13 13 12 12 12 12 13 13 13 12 12 12 11 11 12 12 12 13 13 14 14 15 15 15 15 15 16 17 16 16 15 15 14 12 11 11 11 12 11 11 12 12 11 11 11 10 10 9 9 8 8 8 8 8 8 7 7 7 7 7 7 7 6 6 6 6 7 7 7 7 7 6 6 6 6 6 6
13 13 12 12 12 12 12 12 12 12 12 12 12 12 12 12 12 12 12 11 11 11 11 11 11 11 12 13 13 13 14 14 14 15 15 16 16 16 16 16 15 14 12 11 11 12 12 12 12 12 11 11 11 10 9 9 9 8 7 8 7 7 7 7 7 7 7 7 7 6 6 5 6 6 6 6 6 6 6 6 6 6 5 5 6
13 12 12 12 12 12 11 12 11 11 11 11 11 11 11 11 11 11 11 10 10 10 10 10 11 11 11 11 12 12 12 13 13 13 14 14 15 16 16 16 16 15 13 12 12 12 12 12 12 12 11 11 11 10 9 9 9 8 7 7 7 7 7 7 7 6 7 7 6 6 5 5 5 5 5 5 5 5 5 5 5 5 5 5 5
13 12 12 12 12 11 11 11 11 11 11 11 11 11 11 11 11 10 10 10 10 10 10 10 10 11 11 11 11 11 11 11 11 12 12 13 14 15 16 15 15 15 14 14 14 13 13 13 12 12 12 11 11 10 9 9 9 8 7 7 7 7 7 7 7 6 7 6 6 6 5 5 4 4 4 4 4 4 4 4 4 4 5 5 5
13 12 12 11 11 11 11 11 10 11 11 10 10 10 10 10 10 10 9 9 9 9 9 9 9 10 10 10 10 10 10 10 11 11 11 12 12 13 14 15 15 15 15 15 14 14 13 13 12 12 12 11 10 10 10 9 9 8 8 7 8 8 8 7 7 7 7 6 6 6 5 5 4 4 4 4 4 4 4 4 4 4 4 4 4
12 12 11 11 11 11 10 10 10 10 10 10 10 10 10 10 9 9 9 9 9 9 9 9 9 9 9 10 10 10 10 10 10 10 10 11 11 11 13 14 15 15 16 15 14 14 13 13 13 12 11 11 10 10 10 9 9 9 8 8 8 8 8 7 7 7 7 6 6 6 5 5 4 4 4 3 3 4 4 4 4 4 4 4 4
12 11 11 11 11 10 10 10 10 10 10 10 10 10 9 9 9 9 9 9 9 9 9 9 9 9 9 9 10 9 9 9 9 9 9 10 10 10 11 13 14 15 15 15 14 14 13 12 13 12 11 11 11 10 10 10 10 9 8 8 8 8 8 8 8 7 7 7 6 6 5 5 4 4 4 3 4 4 4 4 4 4 4 4 4
11 11 11 11 10 10 10 10 10 10 10 10 9 9 9 9 9 9 9 9 9 9 9 9 9 9 9 9 9 9 9 8 9 9 9 9 10 10 10 11 12 13 13 13 14 14 13 12 12 12 11 11 10 10 10 10 10 9 8 8 8 9 8 8 8 7 7 7 6 6 5 5 4 4 4 4 4 4 4 4 4 4 4 3 4
11 11 11 10 10 10 10 10 9 9 9 9 9 9 9 9 9 9 9 9 9 9 9 9 9 9 8 9 9 9 8 8 8 8 9 9 9 10 10 10 10 11 11 12 13 13 12 12 12 11 11 11 10 10 10 10 10 9 8 9 9 9 8 8 8 8 7 7 6 6 5 5 5 4 4 4 4 4 4 4 4 3 3 3 3
11 11 11 11 10 10 10 10 9 9 9 9 9 9 9 9 9 9 9 9 9 9 8 8 8 8 8 8 8 8 8 8 8 8 9 9 9 9 9 9 9 9 10 11 12 12 11 11 11 11 11 10 10 10 10 10 10 9 9 9 9 9 8 8 9 8 8 7 7 6 6 5 5 5 4 4 4 4 4 4 4 3 3 3 3
11 11 11 11 10 10 10 10 9 9 9 9 9 9 9 9 9 9 9 9 9 9 9 8 8 9 8 8 8 8 8 9 9 9 9 9 9 9 9 9 9 9 9 10 11 12 11 11 10 10 10 9 10 10 10 10 9 9 9 9 9 9 9 9 9 9 8 7 7 6 6 6 5 5 5 4 4 4 4 4 3 3 3 3 3
11 11 11 11 11 10 10 10 10 9 9 9 9 9 9 9 9 9 9 9 9 9 9 8 8 8 9 8 8 8 8 9 9 9 9 9 9 9 9 10 10 9 9 9 11 11 11 11 10 10 10 10 10 10 10 10 9 9 9 9 9 9 9 9 9 9 8 7 7 7 6 6 6 5 5 5 4 4 4 4 3 3 3 3 3
11 11 11 11 11 11 10 10 10 10 9 9 9 9 9 9 9 9 9 9 9 9 9 9 8 8 8 9 8 8 8 8 9 9 9 9 10 9 9 9 9 9 9 9 10 11 11 11 10 10 10 10 10 10 10 10 9 9 9 9 9 9 9 9 9 9 8 8 7 7 7 7 6 6 5 5 4 4 4 4 4 3 3 3 3
11 11 11 11 11 11 10 10 10 10 10 9 9 9 9 9 9 9 9 9 9 9 9 9 8 8 8 8 8 8 8 8 8 8 8 9 9 9 9 9 9 9 9 8 9 10 10 10 10 10 10 10 10 10 10 10 9 9 9 10 9 9 9 9 9 9 8 7 7 7 7 7 6 6 5 5 4 4 4 4 4 4 4 3 3
11 11 11 11 11 11 10 10 10 10 10 9 9 9 9 9 9 9 9 9 9 9 9 9 9 8 8 8 8 8 8 8 8 8 8 8 9 9 9 9 9 9 9 9 9 9 10 10 10 10 10 10 10 10 10 10 9 9 9 9 9 9 9 9 9 9 8 8 8 8 7 7 6 5 5 5 5 5 5 4 4 4 4 3 3
11 11 11 11 11 11 11 10 10 10 10 9 9 9 9 9 9 9 9 9 9 9 9 8 8 8 8 8 8 8 8 8 8 8 8 8 8 9 9 9 9 9 9 9 9 9 9 10 10 10 10 10 10 10 10 10 9 9 9 9 9 9 9 9 9 8 8 8 8 8 7 6 6 6 5 5 5 5 5 5 4 4 4 4 4
11 11 11 11 11 11 11 11 10 10 10 10 10 9 9 9 9 9 9 9 9 8 8 8 8 8 8 8 8 8 8 8 8 8 8 8 8 8 8 8 9 9 9 9 9 9 10 10 10 10 10 10 10 10 10 9 9 9 9 9 9 9 9 9 9 9 9 9 8 7 7 6 6 6 6 5 5 5 5 5 4 4 4 4 4
11 11 11 11 11 11 11 11 10 10 10 10 10 9 9 9 9 9 9 8 8 8 8 8 8 8 8 8 8 8 8 8 8 7 7 8 8 8 8 8 8 8 9 9 9 9 10 10 10 10 10 10 10 10 9 9 9 9 9 9 9 9 9 9 9 9 9 8 8 7 7 7 6 6 6 5 5 5 5 5 5 5 4 4 4
11 11 11 11 11 11 11 10 10 10 10 10 10 9 9 9 9 9 9 8 8 8 8 8 8 8 8 8 8 7 7 7 7 7 7 7 8 8 8 8 8 8 9 9 9 10 10 10 10 10 10 10 10 9 9 9 9 9 8 8 8 9 9 9 9 9 8 8 8 8 7 7 7 6 6 6 6 5 5 5 5 5 5 4 4
11 11 11 11 11 11 11 10 10 10 10 10 9 9 9 9 9 9 9 8 8 8 8 8 8 8 8 7 7 7 6 6 6 6 6 6 7 7 7 7 7 8 8 9 9 9 9 10 10 10 10 10 10 9 9 9 8 8 8 8 8 9 9 9 9 8 8 8 8 7 7 7 6 6 6 6 6 5 5 5 5 5 5 4 3
11 11 11 11 11 11 10 10 10 9 10 9 9 9 9 9 9 9 9 9 8 8 8 8 8 8 8 7 6 6 6 6 6 6 6 6 6 6 7 7 7 7 8 8 9 9 9 9 9 9 9 9 9 8 8 8 8 7 7 8 8 8 8 9 9 8 8 8 8 7 7 6 5 5 6 6 5 5 5 6 5 5 4 3 3
11 11 11 11 11 10 10 10 10 9 9 9 8 8 8 8 9 9 9 9 9 8 8 8 8 8 8 8 7 6 6 6 7 6 6 6 6 6 7 7 7 7 7 7 8 8 8 9 9 9 9 9 8 8 8 7 7 7 7 7 8 8 8 8 9 8 8 8 8 8 7 6 5 5 5 5 5 5 5 5 5 4 4 3 3
10 10 10 10 10 10 10 10 10 9 9 8 8 8 8 8 8 9 9 9 9 9 9 9 9 8 8 8 7 7 7 7 7 7 7 7 7 7 7 7 7 6 6 6 7 7 7 7 8 8 8 8 8 8 7 7 6 6 7 7 7 7 8 8 8 8 8 8 8 8 7 6 6 5 5 5 5 5 5 4 4 4 4 3 3
10 10 10 10 10 10 10 10 10 9 9 8 8 8 7 7 8 8 9 9 9 9 9 9 9 9 8 8 8 7 7 7 7 8 8 8 7 7 7 7 7 7 6 6 6 6 6 6 7 8 7 7 7 7 6 6 6 6 7 7 7 7 8 8 8 8 8 8 8 7 7 6 5 5 5 5 5 5 4 4 4 4 4 3 3
10 10 10 10 10 10 10 10 10 9 9 8 8 7 7 7 7 8 9 9 9 9 9 8 8 8 8 8 9 8 7 7 7 7 7 8 8 8 8 8 8 7 7 6 6 6 6 6 7 7 7 6 6 6 6 5 5 6 6 6 6 7 8 8 8 8 8 8 8 7 7 6 5 5 5 5 5 5 5 5 5 4 4 3 3
10 10 10 10 10 9 10 10 10 9 9 8 7 7 7 7 7 7 8 9 9 9 9 8 8 8 8 8 8 8 8 7 7 7 7 7 8 8 8 8 8 8 8 7 7 7 6 6 6 6 6 6 6 6 5 5 5 5 5 6 7 7 8 8 9 9 8 8 8 7 7 6 5 5 5 5 5 5 5 5 5 4 4 3 3
10 10 9 9 9 9 9 9 9 9 9 8 7 7 7 7 7 7 8 9 9 9 9 8 8 8 8 8 8 8 8 7 7 7 7 7 8 9 9 9 9 9 8 7 7 7 7 7 7 6 6 6 6 6 6 5 5 5 5 7 7 8 8 8 9 9 8 9 8 7 6 6 5 4 4 4 4 5 5 5 4 4 3 3 3
9 9 9 9 9 9 9 9 9 9 8 8 7 7 7 7 7 7 8 9 9 9 9 8 8 8 8 8 8 8 8 7 7 6 7 7 8 9 9 9 9 9 8 8 7 7 7 7 7 7 7 7 7 6 6 6 6 5 6 7 8 7 8 9 9 9 9 9 8 7 6 6 5 4 3 4 4 4 5 5 4 4 4 4 3
8 8 9 9 9 9 9 8 9 9 8 8 7 7 7 7 7 7 8 9 9 9 9 8 8 8 7 7 7 7 7 7 7 6 6 7 8 8 8 9 9 9 8 8 7 7 7 7 7 7 7 7 7 7 7 7 7 6 7 7 7 7 8 8 9 9 9 9 8 6 6 6 5 4 3 3 4 4 4 4 4 3 3 3 2
8 8 8 8 8 8 8 8 8 8 8 7 7 7 7 7 7 7 9 9 9 9 9 8 8 8 7 7 6 7 7 7 6 6 6 7 8 8 8 9 9 9 8 7 7 7 7 7 8 8 8 8 8 8 8 8 7 7 7 7 7 7 8 8 8 8 8 8 8 6 6 7 6 4 3 3 3 4 4 3 3 3 3 2 2
Height
851 851 852 852 852 852 852 853 853 853 852 852 852 852 852 852 852 851 851 851 850 851 851 851 851 851 851 851 851 851 851 851 851 852 851 850 850 850 849 849 848 847 847 846 845 845 844 843 842 842 841 840 839 838 837 835 835 834 833 832 831 830 829 828 827 826 826 826 825 824 822 822 821 820 820 819 818 818 817 816 816 816 815 815 814
851 851 851 851 852 852 852 853 853 853 853 852 852 852 852 852 852 851 851 851 851 851 851 851 851 851 851 851 851 851 851 851 852 852 852 851 851 851 850 849 849 848 847 846 846 845 844 843 842 842 841 840 839 838 837 836 835 834 833 832 831 830 829 828 827 826 825 824 823 822 822 821 820 820 819 818 817 817 816 815 815 815 814 814 813
851 851 851 851 852 852 852 853 853 853 853 852 852 852 852 852 852 851 851 851 851 851 851 851 851 851 851 851 851 851 852 852 853 853 853 852 853 853 852 850 849 848 848 847 846 844 844 843 842 842 841 841 840 839 838 837 836 834 833 832 831 830 829 828 827 826 825 824 822 821 820 820 819 819 818 817 816 816 815 814 814 813 813 813 812
851 851 851 851 851 852 852 853 853 853 853 852 852 852 852 852 852 851 851 851 851 851 851 851 851 851 851 852 852 852 852 853 854 854 854 854 854 854 853 852 851 849 848 847 846 845 843 842 842 842 842 841 841 840 839 838 836 835 834 833 832 830 829 828 827 826 825 823 822 820 819 819 818 817 816 816 815 815 814 813 813 812 812 811 811
850 851 851 851 851 852 852 852 852 852 852 852 852 852 852 852 852 852 851 851 851 851 851 851 852 852 852 853 853 853 853 854 855 855 855 855 855 855 855 854 852 851 849 848 846 845 844 843 843 842 842 841 841 840 839 838 837 836 835 834 832 831 830 829 828 826 825 824 822 820 819 818 817 816 815 815 814 813 813 812 811 811 810 810 809
850 850 851 851 851 851 851 852 852 852 852 852 852 853 852 852 852 851 851 851 852 852 852 852 852 853 854 854 853 854 855 855 856 856 856 856 856 855 855 854 853 852 851 850 848 847 846 845 844 843 842 842 842 841 840 839 838 837 836 834 833 832 830 829 828 827 825 824 822 821 819 817 816 815 814 813 812 812 811 811 810 809 809 808 808
850 850 850 850 851 851 851 851 851 852 852 852 852 853 852 852 852 851 851 851 852 852 852 853 854 854 855 855 855 855 856 857 857 857 857 857 856 856 855 854 853 853 853 852 851 849 848 846 845 845 843 843 842 842 841 840 839 837 837 835 834 832 831 830 828 827 826 824 823 821 819 818 816 815 813 811 810 810 810 809 809 808 808 807 806
849 850 850 850 851 851 851 851 851 851 851 852 852 853 853 853 852 852 852 852 852 852 853 854 855 855 855 856 856 856 857 858 858 858 858 857 857 856 855 855 854 854 854 854 853 851 849 848 847 845 845 844 842 842 841 840 839 838 837 836 834 832 831 829 828 827 826 824 823 821 819 817 816 814 813 811 809 808 808 807 807 806 806 805 805
849 850 850 850 851 851 851 851 851 851 851 852 852 853 853 853 853 852 852 852 852 852 854 855 855 856 856 857 857 858 859 859 859 859 859 858 857 857 856 856 856 855 855 854 853 852 851 849 848 847 845 844 843 842 841 840 839 838 837 836 835 833 831 830 828 826 825 824 823 821 819 817 816 814 813 811 809 808 806 805 804 803 802 802 803
850 850 850 851 851 851 851 852 852 852 852 852 853 853 853 853 852 852 852 852 852 852 854 855 856 857 858 858 859 859 860 860 860 860 859 859 858 858 857 857 857 856 856 855 854 853 852 850 849 848 846 845 844 842 841 840 839 838 837 836 835 833 831 830 828 826 825 823 822 820 819 817 816 814 813 811 809 807 806 804 803 801 800 800 800
850 850 850 851 851 851 852 852 852 852 852 852 852 852 852 852 852 852 852 851 851 852 854 856 857 858 859 859 860 861 861 861 861 860 860 860 859 859 858 858 858 857 856 856 854 853 852 851 850 850 848 846 844 843 841 840 839 838 837 836 835 833 832 830 828 827 825 823 822 820 819 817 816 814 812 811 809 807 806 804 802 800 799 798 798
850 850 851 851 851 851 851 852 852 852 852 852 852 852 852 852 852 852 851 851 851 852 854 856 857 859 860 861 861 862 862 862 862 861 861 860 860 860 860 859 859 858 857 856 855 854 853 852 851 850 849 847 845 844 842 841 839 838 837 836 835 834 832 830 829 827 825 823 822 820 818 817 815 813 812 811 808 807 805 804 802 800 798 797 796
851 851 851 851 851 851 851 851 852 852 852 852 852 852 852 851 851 851 850 850 851 853 854 856 857 859 861 862 863 863 863 863 862 862 862 861 861 861 860 860 860 859 858 857 856 855 854 853 852 851 850 849 847 845 843 842 840 839 837 836 835 834 832 831 829 827 826 824 822 820 819 817 815 813 812 810 808 807 804 803 801 800 798 796 795
852 851 851 851 851 851 851 851 851 852 851 851 851 851 851 851 851 850 850 850 851 853 854 855 855 856 859 861 862 863 864 863 863 863 862 862 862 861 861 860 860 860 859 858 857 856 855 854 853 852 850 849 848 846 845 843 841 839 838 836 835 834 832 831 829 827 826 824 822 820 819 817 815 813 811 810 808 806 804 802 801 799 797 796 794
852 851 851 850 850 851 851 850 850 851 851 851 851 851 851 850 850 850 850 851 852 853 854 855 854 853 855 856 858 861 863 863 863 864 863 863 862 862 861 861 861 860 860 859 858 857 856 855 854 853 851 850 849 847 846 844 842 840 839 837 835 834 832 830 829 827 825 824 822 820 818 817 815 813 811 809 808 806 804 802 800 798 796 795 793
851 851 850 850 850 850 850 850 850 850 851 851 851 850 850 850 850 850 850 851 852 853 854 855 854 852 851 850 851 853 857 860 863 864 864 863 863 862 862 862 861 861 860 859 859 858 857 856 855 853 852 850 849 847 846 845 843 842 840 838 836 834 832 830 829 827 825 823 822 820 818 816 814 812 811 809 807 805 803 801 799 797 796 794 792
851 851 850 850 850 850 850 850 849 850 850 850 850 850 849 850 850 850 851 851 852 853 854 855 854 853 852 850 848 848 851 857 860 862 864 863 863 863 862 862 862 861 860 860 859 858 858 857 855 854 852 851 849 848 846 845 843 842 841 838 836 835 833 831 829 827 825 823 821 819 817 816 814 812 810 808 806 805 803 801 799 797 794 793 791
851 851 851 850 849 849 849 849 849 849 849 849 849 849 849 850 850 851 851 852 853 854 854 855 855 855 854 853 852 850 851 854 855 859 863 863 863 863 863 863 862 861 861 860 860 859 858 857 856 854 853 851 850 848 847 845 844 842 841 839 836 834 832 831 829 827 825 822 820 818 817 815 813 811 809 807 806 804 802 800 798 796 794 792 790
851 851 851 850 849 849 849 849 849 848 849 849 849 849 850 850 850 851 852 853 854 854 855 856 856 856 855 855 854 853 853 853 853 855 858 861 863 863 863 863 862 862 861 860 860 859 858 857 856 854 853 851 850 848 847 846 844 843 841 839 836 834 832 830 828 826 824 822 819 817 815 814 812 810 808 806 805 803 801 799 798 796 794 791 788
852 851 851 850 849 849 849 849 849 849 849 849 849 849 850 850 851 851 852 853 854 855 856 857 857 857 857 856 856 855 855 854 854 853 853 857 861 862 863 864 863 862 862 861 860 859 858 857 856 854 853 852 850 849 847 846 844 843 841 839 836 834 831 829 827 825 823 820 818 816 814 812 810 808 807 805 803 801 800 798 796 795 793 791 788
852 851 851 850 849 849 849 849 849 849 849 849 849 850 850 851 851 852 853 854 855 856 857 858 858 859 859 858 858 857 857 856 856 855 854 854 857 859 861 862 862 862 862 861 860 859 858 857 856 854 853 852 850 849 847 846 844 843 841 838 835 833 831 828 826 823 821 819 816 814 812 810 809 807 805 804 802 800 798 796 794 793 791 789 787
851 851 850 849 849 849 849 849 849 849 850 850 850 851 851 851 852 853 854 855 856 857 858 859 859 859 859 859 859 858 858 858 858 857 856 855 856 857 859 859 860 861 861 861 860 859 858 857 855 854 853 851 850 849 847 845 844 842 840 836 834 832 829 827 825 822 820 817 815 812 810 808 807 805 803 802 800 798 796 794 792 791 789 787 786
851 851 850 849 849 849 849 850 850 850 851 851 851 852 852 853 854 855 855 856 858 858 859 859 860 860 860 860 859 859 859 859 859 859 858 857 856 857 857 857 858 859 860 860 859 859 858 857 855 854 853 851 850 848 846 845 843 841 838 835 833 830 828 826 824 821 819 816 813 810 808 806 804 803 801 799 798 796 794 792 790 788 786 785 783
851 850 850 850 850 850 850 850 851 851 852 852 853 853 854 855 856 857 857 858 859 860 860 861 861 861 861 861 861 861 861 861 861 861 860 859 857 856 856 857 856 857 859 859 858 858 857 856 855 854 853 851 849 848 846 844 842 840 837 834 831 828 827 825 822 820 817 814 811 809 807 805 802 801 799 797 795 793 791 790 788 786 784 783 781
850 850 850 850 850 850 851 851 852 852 852 853 853 854 855 856 857 858 859 860 860 861 861 861 862 862 862 862 862 862 863 863 863 862 861 860 859 858 858 858 857 857 858 858 858 858 857 856 855 854 852 851 849 847 845 843 841 839 836 832 829 827 826 823 821 818 815 812 810 807 805 803 801 799 797 795 793 790 789 787 785 783 782 780 778
849 849 849 850 851 851 851 852 852 852 853 853 854 855 857 858 859 860 860 861 862 862 862 862 862 862 863 863 863 864 864 863 863 863 862 862 861 861 859 858 858 857 857 857 858 857 857 856 855 853 852 850 849 847 845 843 840 838 835 831 828 826 824 821 819 816 813 810 808 805 803 801 799 796 794 792 790 788 786 784 783 781 779 778 776
848 848 849 850 851 851 852 853 853 853 854 855 856 857 858 859 860 861 862 863 863 863 864 863 863 863 863 864 864 864 864 864 864 864 864 864 864 864 861 858 857 856 856 856 857 857 857 856 854 853 852 850 848 847 844 842 840 837 834 830 828 825 822 820 817 814 811 808 806 803 801 799 796 794 791 789 787 786 784 782 780 779 777 775 774
847 848 849 850 851 852 853 853 853 854 855 856 857 858 859 860 861 863 863 864 864 864 865 864 864 864 865 865 865 865 865 865 865 865 866 866 866 865 864 862 859 857 857 856 857 858 857 856 854 853 852 850 848 846 843 841 839 836 833 830 827 824 821 818 815 811 809 806 804 801 799 796 794 791 789 787 785 783 781 779 778 776 774 773 771
847 848 849 850 851 852 853 853 854 855 856 858 859 859 861 862 863 864 864 865 865 866 866 866 866 866 866 866 866 866 866 866 867 867 867 867 867 866 866 865 863 861 859 858 857 858 857 856 854 852 851 850 847 845 843 841 839 836 832 829 826 823 820 816 812 809 807 805 802 799 797 794 792 789 787 785 783 781 779 777 775 773 772 770 769
847 848 850 850 852 852 853 854 855 857 858 859 860 861 862 863 864 865 865 866 866 866 867 867 867 867 867 867 867 867 867 868 868 868 869 868 868 868 867 867 866 865 864 861 858 858 858 856 855 853 851 850 848 845 843 841 838 835 832 828 825 822 818 813 810 808 805 803 800 797 795 792 790 787 785 782 780 778 776 775 773 771 769 767 766
847 848 850 851 852 853 854 855 856 857 859 859 860 861 862 863 864 865 866 867 867 867 868 868 868 868 868 868 868 868 869 869 869 870 870 869 869 869 868 868 868 867 866 864 860 859 859 857 856 854 852 850 847 845 843 840 837 834 831 827 824 820 815 811 808 806 804 801 798 795 792 790 787 784 782 779 777 775 773 772 770 768 766 765 763
847 848 850 851 852 853 854 856 857 858 859 860 861 862 863 864 865 866 867 867 868 868 868 868 869 869 869 869 869 870 870 870 871 871 870 870 870 869 869 869 868 868 867 865 862 860 860 858 856 854 852 850 847 845 843 840 837 833 830 826 822 818 814 810 807 804 802 799 795 793 790 787 784 781 778 776 774 772 770 768 767 765 763 761 759
846 848 849 851 852 854 855 856 857 858 859 860 862 863 864 865 866 867 868 868 868 868 869 869 869 870 870 870 870 871 871 871 871 871 871 871 870 870 870 869 869 868 867 865 863 861 859 858 856 854 852 849 847 844 842 839 836 832 829 825 821 817 814 809 805 802 800 797 793 790 787 784 781 778 775 773 771 769 767 765 763 761 760 758 756
846 848 849 851 852 854 855 856 858 859 860 861 862 863 865 866 867 867 868 868 869 869 869 870 870 871 871 871 871 872 872 872 872 872 871 871 871 870 870 870 869 868 867 866 864 861 859 857 856 853 851 849 846 844 841 838 835 831 828 824 820 817 813 809 804 800 798 795 791 788 784 781 778 775 773 770 768 766 764 762 760 758 756 755 753
846 848 849 851 852 854 855 857 858 859 860 862 863 864 865 866 867 868 868 868 869 869 870 871 871 872 872 872 872 872 873 872 872 872 872 871 871 871 870 870 869 868 867 866 864 862 860 857 855 853 850 848 846 843 841 838 834 830 827 823 820 816 812 808 804 799 796 793 789 785 782 779 776 774 771 768 766 763 761 759 757 755 753 752 750
846 848 849 851 852 854 856 857 858 859 861 862 864 865 866 867 867 868 868 868 869 870 871 871 872 873 873 873 873 873 873 873 873 873 872 872 871 871 870 869 869 868 866 865 864 862 860 857 855 853 850 848 845 843 840 837 834 830 826 822 819 814 811 807 803 798 794 790 787 784 781 778 775 772 769 766 763 760 758 756 754 752 751 749 747
846 848 849 851 852 854 855 857 858 860 861 862 864 865 866 867 867 868 868 868 869 870 871 872 873 873 874 874 874 874 874 874 874 873 873 872 871 871 870 869 868 867 866 865 863 862 860 857 855 853 850 848 845 842 839 836 832 829 826 822 818 813 809 805 802 797 792 788 785 783 780 776 773 769 766 763 760 758 755 753 751 749 748 746 745
845 847 849 850 852 854 855 857 858 860 861 863 864 865 866 867 867 868 868 868 870 871 872 873 873 874 874 874 874 874 874 874 874 874 873 872 871 870 870 869 868 867 865 864 863 861 859 857 854 852 849 847 844 842 839 836 832 828 824 820 817 813 808 803 800 796 792 788 785 782 779 775 771 767 763 760 757 754 752 750 748 747 745 744 742
845 847 848 850 852 853 855 857 858 860 861 862 864 865 866 867 868 868 868 869 870 871 872 873 874 875 875 875 875 875 875 874 874 873 873 872 871 871 870 869 868 866 865 864 862 860 858 856 853 851 849 847 844 841 839 836 833 829 824 819 814 811 807 803 799 796 792 788 784 781 778 774 769 765 761 758 755 752 750 748 746 744 743 741 740
844 846 848 850 852 853 855 856 858 860 861 862 864 865 866 867 868 868 869 869 870 871 873 874 874 875 875 875 875 875 875 874 873 873 872 872 871 871 870 869 867 866 865 863 861 860 858 855 853 851 849 846 844 842 839 835 832 829 826 821 815 809 806 802 799 795 792 788 784 779 776 772 767 763 759 755 752 750 747 745 743 742 741 739 738
844 846 848 849 851 853 855 856 858 859 861 862 863 865 866 867 868 869 869 870 870 871 873 874 874 875 876 876 876 875 874 873 873 872 871 871 871 870 870 868 867 866 865 863 861 859 857 855 853 851 849 846 844 842 839 836 833 830 826 822 817 811 806 802 798 796 792 788 784 779 775 771 766 762 758 754 750 748 745 743 741 740 738 737 736
843 845 847 849 851 852 854 856 857 859 860 862 863 864 866 867 868 869 869 870 871 871 872 874 875 875 876 876 875 875 874 873 872 872 871 871 870 870 869 868 867 866 864 863 861 859 857 855 853 852 849 847 845 843 840 838 835 832 827 822 817 811 806 801 796 795 792 788 783 778 775 772 766 761 757 753 749 746 744 741 739 738 736 734 732
842 844 846 848 850 852 853 855 857 858 860 861 862 864 865 866 868 869 869 870 871 872 872 873 874 875 876 876 876 875 874 873 873 872 871 871 870 869 869 868 866 865 864 863 861 860 858 856 854 853 850 848 846 844 841 839 836 832 828 823 818 812 807 801 795 792 790 788 783 778 774 771 767 761 756 753 749 745 742 739 737 735 733 731 729
841 843 845 847 849 851 853 854 856 858 859 860 861 864 865 866 868 869 870 870 871 872 873 873 874 875 875 876 876 875 875 874 873 872 872 871 870 869 868 867 866 865 864 863 861 860 859 857 855 854 852 849 847 844 842 840 836 833 829 824 820 814 809 804 798 793 790 788 784 779 774 770 767 761 756 753 748 744 741 738 736 733 730 728 726
840 842 844 846 848 850 851 853 855 857 858 859 861 864 865 866 868 869 870 871 871 872 873 873 874 875 875 875 875 875 874 873 873 873 872 871 870 869 868 867 865 864 863 862 860 859 858 857 856 854 852 850 847 845 843 840 837 833 828 824 821 816 811 806 801 796 791 788 784 780 775 770 767 762 756 752 748 743 739 736 733 731 727 725 723
840 841 843 845 847 849 850 852 854 856 857 858 861 863 865 867 868 869 870 871 871 872 873 873 874 874 874 874 874 874 874 873 873 872 871 871 870 869 868 867 866 865 863 862 860 859 858 857 856 854 853 851 848 845 843 841 838 834 829 825 821 816 812 807 802 798 793 789 785 781 775 770 767 762 755 750 746 742 737 734 731 728 725 723 720
839 841 842 844 846 848 849 851 853 855 856 858 860 863 864 866 868 869 870 871 871 872 872 873 873 874 874 874 874 874 874 873 872 871 870 870 870 869 868 867 866 865 864 862 861 859 858 857 856 854 852 850 848 845 843 840 837 834 830 826 822 817 812 806 802 798 794 790 787 782 776 771 768 763 755 750 746 741 736 732 729 726 723 720 717
838 840 842 843 845 847 849 850 852 854 855 857 860 862 864 866 867 869 871 872 872 872 872 872 873 873 873 873 873 873 873 872 871 870 869 869 869 868 867 866 865 864 863 862 860 858 857 856 855 853 851 848 846 844 841 839 836 833 829 825 821 817 811 806 800 796 793 790 787 784 779 773 769 765 757 750 745 740 735 731 727 724 720 717 714
837 839 841 843 845 847 848 850 852 853 854 856 859 861 863 865 867 868 870 872 872 872 872 872 873 873 873 873 873 873 872 872 871 870 869 868 868 868 867 866 865 864 862 861 859 857 856 855 853 851 849 847 844 842 840 838 835 832 828 824 821 816 811 806 801 796 793 790 787 785 781 774 769 766 759 751 746 741 735 731 727 723 718 715 711
835 838 840 842 844 846 847 849 851 852 853 855 857 860 862 864 865 866 867 869 870 871 871 872 872 872 872 872 871 871 871 871 870 869 868 867 867 867 866 865 864 863 862 861 859 857 856 854 852 851 848 846 844 842 840 837 834 832 829 825 821 817 812 808 803 798 793 790 788 785 781 774 770 767 760 752 746 741 737 732 727 722 718 713 709
834 837 839 841 843 844 846 848 850 851 853 854 856 858 859 861 862 863 864 865 866 868 869 870 871 871 871 870 870 870 870 870 869 869 868 867 867 866 865 864 864 863 862 860 859 857 855 854 852 850 848 846 844 842 840 837 834 832 829 826 822 818 814 810 805 800 794 790 788 786 781 775 771 768 763 755 746 739 735 732 727 722 718 713 709
Wind_Speed
3 3 3 3 2 2 2 2 3 3 3 3 3 3 3 3 3 3 3 3 3 4 3 4 4 4 5 5 5 6 7 7 6 6 8 10 11 9 7 7 6 5 7 9 11 12 13 13 13 12 11 11 11 12 12 12 11 11 12 13 13 12 12 13 13 13 14 13 13 14 14 14 14 13 12 12 13 12 11 12 13 14 13 12 12
3 3 2 3 3 3 3 2 2 3 3 3 3 3 3 3 4 4 4 3 4 4 4 4 4 5 5 6 6 7 7 7 6 6 7 9 9 9 8 7 6 5 4 5 7 10 11 12 14 16 15 15 14 14 14 14 14 13 12 13 13 12 11 12 13 13 14 14 15 16 16 15 15 15 14 13 14 14 12 12 13 14 15 14 14
2 2 2 2 3 3 3 2 2 3 3 4 4 4 4 4 5 5 5 4 4 5 5 5 5 6 6 7 7 7 7 7 7 6 7 8 8 9 10 9 6 5 4 3 4 5 7 9 12 15 16 17 17 17 17 16 16 15 13 13 16 16 13 13 12 12 12 14 15 17 18 18 17 17 16 15 15 15 15 14 13 14 15 16 15
2 2 2 2 3 3 3 2 2 3 3 4 4 4 4 4 5 5 5 5 5 6 6 6 6 6 7 7 8 8 8 8 8 8 8 8 8 8 9 10 10 7 5 4 3 4 5 6 8 12 14 16 17 17 16 17 17 16 14 12 16 18 17 16 15 14 14 13 14 15 17 17 18 18 17 17 17 16 17 16 14 14 15 15 16
3 3 3 3 4 4 3 3 3 3 3 4 4 4 4 4 4 5 5 5 6 6 6 6 6 6 7 7 8 9 9 9 9 9 9 9 9 8 8 9 10 11 9 8 7 7 7 8 8 9 11 13 16 16 16 17 17 18 16 12 12 16 16 17 17 16 16 17 16 15 16 16 16 17 18 18 18 18 18 18 17 16 15 15 16
4 4 4 4 4 4 4 3 3 3 3 4 4 4 4 4 4 4 5 6 6 6 5 6 7 7 7 8 9 10 10 10 9 9 9 9 9 9 10 10 10 11 11 11 12 11 11 11 11 10 10 12 14 16 16 16 16 16 18 15 11 14 15 16 17 17 15 17 18 16 17 17 15 15 17 18 19 20 19 19 19 19 19 17 16
4 5 5 5 4 4 4 3 3 3 4 4 5 5 5 5 5 5 5 5 5 6 6 6 6 7 8 9 10 10 10 10 9 9 9 9 10 10 11 11 11 11 11 11 12 13 13 13 13 13 13 13 14 16 16 17 15 13 17 18 13 12 15 15 16 16 15 17 19 17 18 19 18 17 18 16 16 19 20 20 21 21 20 19 17
4 4 4 4 4 4 4 3 3 3 4 5 5 4 4 4 5 5 5 5 5 6 7 7 8 9 9 10 10 10 10 9 9 9 9 9 10 10 11 12 12 12 12 11 11 12 13 13 13 13 13 13 14 16 16 18 18 15 17 19 15 13 14 14 14 15 14 15 18 17 17 20 20 18 19 19 16 15 15 17 19 21 21 20 18
4 4 4 4 4 4 4 3 3 4 5 5 5 4 4 3 4 5 5 4 4 5 7 7 9 10 11 11 10 10 9 9 8 8 9 10 10 10 11 11 12 12 11 11 11 11 12 13 14 14 14 14 14 15 16 17 20 20 19 19 19 17 15 15 15 15 14 13 15 17 15 18 20 18 19 20 18 17 16 16 17 17 20 22 20
4 4 5 4 4 5 4 4 3 4 5 4 4 4 3 3 4 5 5 4 3 5 8 8 9 11 12 12 11 10 10 9 8 8 9 9 9 10 10 10 11 11 11 11 12 12 12 13 13 13 14 15 15 15 16 16 18 20 21 20 21 20 19 18 18 17 16 14 14 17 16 16 18 16 17 20 19 20 20 20 20 20 17 20 22
5 5 5 5 5 5 4 4 3 4 3 3 3 3 3 3 3 4 4 5 5 6 9 9 11 12 12 13 12 11 10 9 9 9 9 9 9 9 9 10 10 11 11 11 12 13 13 13 12 12 13 16 17 16 17 17 18 19 21 21 21 22 21 21 21 20 20 18 16 18 17 16 17 15 15 19 21 21 23 22 21 21 18 16 20
4 4 5 5 5 4 3 3 3 2 2 2 2 2 2 2 3 3 3 6 7 8 10 11 12 13 13 13 13 12 11 9 9 9 9 8 8 9 8 8 9 10 11 11 12 13 14 14 13 12 12 13 16 17 18 18 19 20 21 21 21 22 22 22 22 22 22 21 20 20 20 19 19 17 16 19 20 22 24 23 21 20 19 16 15
4 4 5 4 4 4 3 3 2 2 2 2 2 2 2 2 2 3 4 6 7 8 10 11 11 11 11 11 12 11 10 9 9 9 8 8 8 8 8 8 8 9 10 10 11 12 13 13 13 13 12 12 13 14 15 16 19 20 21 22 21 22 22 22 22 22 22 22 22 22 22 21 21 20 20 20 20 22 24 22 22 21 20 19 15
4 4 4 3 3 3 2 2 2 2 2 2 2 1 1 1 1 4 6 6 7 7 9 9 8 8 8 7 8 8 9 10 10 9 8 7 7 8 8 9 8 8 9 9 11 11 12 13 13 13 13 12 12 13 13 14 17 19 22 24 23 22 22 22 22 23 23 23 23 23 22 22 22 22 21 21 21 22 23 22 22 21 21 21 20
4 3 2 2 2 2 2 1 1 1 1 1 2 1 2 2 3 4 6 7 7 6 8 8 5 6 9 6 5 6 6 8 9 9 8 8 7 8 8 9 9 8 8 9 9 10 11 11 12 13 13 12 12 12 12 14 16 16 20 23 23 23 23 23 23 23 23 23 23 23 23 23 22 22 22 22 22 23 23 22 21 20 21 21 21
3 1 1 1 1 2 1 1 1 1 1 1 2 3 4 4 5 5 5 5 6 5 5 6 6 4 5 5 5 6 4 6 8 7 7 8 8 8 8 8 8 8 8 9 9 9 9 10 11 11 12 12 12 11 11 13 15 14 16 21 22 22 23 23 24 24 24 24 23 23 23 23 23 22 22 22 22 22 23 22 21 20 21 21 21
2 2 1 1 2 2 2 2 2 2 3 3 4 5 6 6 6 6 5 5 6 6 5 2 2 3 3 4 3 3 3 8 8 5 5 7 8 8 9 9 8 8 9 9 9 8 8 8 9 10 10 11 11 11 11 12 14 13 14 20 21 21 23 23 24 25 25 25 24 24 23 23 23 23 22 22 22 22 22 22 22 21 21 21 21
1 1 1 2 2 2 2 3 3 3 5 5 6 7 8 8 7 6 6 6 6 7 8 7 5 3 4 5 2 3 4 7 6 4 6 6 7 8 8 8 8 8 8 9 9 9 8 7 8 9 9 10 10 11 11 11 14 13 13 20 23 22 23 24 25 25 25 26 25 24 24 23 23 23 23 22 22 22 22 22 22 22 22 22 21
2 2 2 2 3 3 4 4 5 5 6 7 8 8 8 8 7 7 7 6 6 7 7 7 8 8 8 8 7 7 6 2 2 3 5 5 5 6 7 7 7 8 8 8 8 8 8 8 8 8 9 10 10 11 11 11 12 12 14 21 23 22 24 25 25 26 25 26 26 25 24 23 24 23 23 22 22 22 22 22 22 21 21 22 22
3 3 3 4 4 4 5 6 7 7 8 9 9 9 9 8 8 8 7 6 6 6 6 6 7 8 9 10 11 10 8 7 5 2 2 4 4 5 6 6 6 7 7 7 7 7 8 8 8 9 9 9 10 11 11 11 12 11 15 21 22 22 23 25 26 27 27 27 27 26 25 24 24 23 23 22 22 22 23 22 22 21 21 21 22
4 4 4 5 5 6 6 8 9 9 9 10 10 10 10 10 10 10 9 9 8 7 7 7 7 6 6 7 8 9 10 10 8 6 4 3 3 4 4 4 5 6 5 5 5 7 7 7 8 9 9 10 11 11 11 11 11 11 17 22 21 21 23 24 26 27 28 28 27 27 25 24 24 23 23 22 22 23 23 23 22 21 21 21 22
5 5 6 6 7 7 8 9 10 11 11 11 11 12 12 13 14 14 14 13 11 10 9 8 7 6 5 5 5 7 8 8 8 7 5 4 4 4 3 3 3 4 3 3 4 6 7 8 9 10 11 11 12 11 11 12 9 12 21 24 20 21 23 25 26 28 29 29 27 26 25 25 24 24 23 23 23 23 23 23 23 22 21 21 22
6 6 7 7 8 9 10 11 11 11 11 11 12 13 14 16 17 17 18 16 13 12 12 10 10 9 9 9 9 8 8 8 7 6 6 5 4 4 4 4 4 4 3 2 3 6 7 9 9 10 11 12 13 12 12 12 10 14 25 26 21 22 24 25 27 28 30 29 27 27 26 25 25 24 24 23 24 24 23 23 23 23 23 22 22
7 7 7 8 9 10 11 11 11 11 11 12 13 14 15 15 16 16 16 14 12 11 11 11 10 11 11 11 11 10 10 9 7 7 7 6 5 4 5 4 4 5 5 2 3 6 7 9 10 10 12 13 13 12 13 13 11 16 25 26 22 22 24 25 26 29 31 29 28 28 27 26 26 25 25 25 25 24 24 23 23 24 23 23 23
7 8 9 9 10 10 10 11 11 11 13 13 14 15 15 15 16 15 14 13 12 12 12 11 11 11 11 11 11 11 10 9 8 8 8 8 7 6 5 5 4 4 5 4 5 7 8 9 9 11 13 13 14 13 13 14 12 16 27 27 21 21 23 24 27 31 31 29 29 29 29 29 28 27 27 27 26 26 25 24 24 24 24 23 23
9 9 10 10 10 11 11 11 12 13 14 15 15 15 15 15 15 14 13 13 13 13 13 12 12 12 12 11 11 11 11 10 10 11 10 10 9 7 4 2 3 4 4 5 7 8 9 10 9 11 14 14 15 14 14 16 13 18 29 26 19 21 23 24 29 32 31 29 30 30 30 30 30 30 30 29 28 26 26 25 25 23 23 23 23
10 11 11 11 12 12 12 12 13 14 14 16 16 16 15 14 14 13 13 12 12 13 13 14 14 13 12 12 11 11 11 11 11 12 11 10 9 9 7 3 2 3 4 5 7 9 12 12 8 12 15 15 15 15 16 16 14 21 29 23 20 23 22 25 32 33 31 30 31 30 31 31 31 32 32 30 28 27 26 25 24 23 22 22 22
11 12 12 12 12 12 12 13 14 14 14 15 15 15 14 14 13 13 12 12 12 13 13 14 14 13 12 12 12 12 12 11 11 11 10 10 9 9 10 8 5 3 3 4 5 8 12 13 11 12 15 16 17 16 17 16 16 23 26 22 22 22 23 30 35 32 31 31 31 30 31 32 32 32 32 30 28 27 26 25 23 23 22 22 23
13 13 13 13 13 13 13 14 14 14 14 14 14 14 13 13 12 12 11 11 12 12 12 12 12 12 12 12 12 12 11 11 10 9 8 9 9 9 10 11 8 5 3 4 5 7 12 13 13 14 16 18 18 17 18 17 19 24 24 22 23 22 26 35 34 30 31 30 29 30 31 32 34 34 32 30 29 28 27 25 24 24 24 23 23
14 13 13 13 13 13 14 14 14 14 13 13 13 13 12 12 11 11 11 11 11 11 11 12 12 12 12 12 12 12 11 10 9 9 8 8 8 9 9 10 10 7 5 4 4 8 12 13 13 15 17 19 18 17 17 17 20 24 24 23 23 24 31 35 31 29 30 28 29 31 32 34 36 35 33 31 31 29 28 27 26 26 26 25 24
14 14 14 14 13 13 13 14 14 14 13 13 13 12 12 11 11 10 10 10 11 11 11 11 11 12 12 12 12 11 10 9 8 8 8 8 8 8 7 8 9 8 6 5 4 7 11 12 13 14 16 19 18 17 17 18 20 24 24 24 24 27 31 30 29 29 28 28 30 31 33 36 37 36 33 32 31 30 29 29 28 28 27 27 26
15 15 14 14 14 13 13 14 14 14 13 13 12 11 11 10 10 10 10 10 11 11 11 11 11 11 12 11 10 9 7 7 7 7 8 7 7 7 6 6 7 7 7 7 5 7 9 11 13 14 15 18 18 16 17 19 20 23 24 24 25 28 28 27 29 29 27 28 30 31 35 37 36 34 32 32 31 30 30 30 30 30 29 29 29
15 15 14 14 14 14 14 14 14 14 13 13 12 11 11 11 10 10 10 10 11 11 11 11 11 10 11 11 10 9 7 7 7 6 7 6 6 7 7 6 6 6 7 7 7 8 10 11 13 14 14 16 17 17 18 20 21 23 24 24 25 26 26 27 29 28 27 29 31 34 36 36 34 33 32 32 30 30 31 31 30 29 29 29 29
15 15 15 15 14 14 14 14 14 14 13 12 11 11 11 11 11 10 10 11 11 11 11 11 10 10 10 10 9 8 7 7 7 7 6 6 6 6 6 6 6 6 6 7 8 9 11 12 13 14 15 16 16 17 19 20 22 24 24 24 25 26 26 27 28 28 27 29 32 35 35 34 33 33 32 31 31 32 31 30 30 29 29 28 27
15 15 15 15 15 14 14 14 14 14 13 12 11 11 12 12 11 11 11 11 11 11 11 10 10 9 9 8 8 7 7 7 7 6 6 5 5 6 5 4 5 6 6 6 7 9 11 12 13 14 15 16 17 18 19 20 22 24 24 24 26 28 27 27 28 28 27 30 33 34 34 34 34 34 33 33 33 32 31 30 30 28 27 26 26
15 15 15 15 15 15 14 14 14 14 13 12 12 12 12 12 12 12 12 12 11 11 11 10 9 8 8 7 7 6 6 6 6 6 6 5 5 5 5 4 5 6 6 6 7 9 10 12 13 14 15 16 17 17 19 20 22 22 23 25 27 28 27 26 27 27 28 30 31 31 33 34 34 35 35 34 32 32 32 30 27 25 25 26 26
16 16 16 16 15 15 14 14 14 14 13 13 13 13 12 12 12 12 12 12 12 11 10 10 9 8 7 7 7 6 6 6 5 5 5 5 5 6 6 5 6 7 7 7 8 9 10 12 13 13 14 16 16 17 19 22 23 23 23 25 27 27 27 26 26 26 28 29 30 31 33 34 36 36 35 34 33 33 31 27 25 25 26 26 25
16 16 16 16 15 15 14 14 14 14 13 13 13 13 13 12 12 12 12 12 12 11 10 9 8 7 7 6 6 6 5 5 5 5 5 5 5 6 7 7 7 8 7 8 8 9 10 12 12 13 14 15 16 17 19 22 23 24 25 26 26 26 27 28 26 25 26 27 30 33 35 35 36 36 35 35 33 31 29 27 27 27 27 25 24
17 16 16 16 15 15 14 14 14 14 13 13 13 13 13 13 12 12 12 12 12 11 10 9 8 7 6 6 5 6 5 5 5 5 5 5 4 6 7 7 8 8 8 8 9 9 11 12 12 14 15 15 16 18 20 21 22 23 26 28 28 27 28 28 27 25 25 27 30 34 35 35 35 35 35 34 32 30 29 28 28 27 24 21 20
16 16 16 16 15 14 14 14 14 14 14 14 14 14 13 13 12 12 12 12 11 11 10 8 7 6 6 6 6 6 6 6 7 7 7 6 5 5 7 8 8 9 9 9 10 10 11 12 13 14 15 15 16 18 20 21 22 24 26 27 28 29 30 29 26 23 24 28 32 35 36 35 35 35 34 33 31 29 29 28 26 23 21 20 22
16 16 16 16 15 15 15 14 14 14 14 14 14 14 14 13 13 12 11 11 11 11 9 8 7 6 6 6 6 6 6 8 8 9 9 9 7 6 6 7 8 8 9 9 10 11 11 12 13 14 15 15 17 19 20 21 23 25 27 27 27 28 29 28 25 21 23 28 33 34 35 35 35 35 35 33 32 30 29 27 24 23 25 27 29
16 16 16 16 15 15 15 15 14 14 14 14 15 16 14 13 12 12 11 11 10 10 9 8 7 6 5 5 5 6 6 8 9 10 10 9 8 7 7 8 8 8 9 9 10 11 12 12 13 14 15 16 18 19 19 21 23 25 27 27 27 28 28 26 24 21 22 29 33 33 34 34 34 35 35 33 32 31 29 27 27 29 31 31 30
16 16 16 16 16 15 15 15 15 14 13 15 18 19 17 14 12 11 11 10 9 9 8 7 7 6 5 5 4 4 4 4 5 8 10 9 8 7 7 9 10 10 9 9 10 11 12 12 13 14 15 16 18 18 18 21 23 24 25 26 26 28 27 25 24 23 25 30 33 34 35 35 35 36 35 33 33 32 30 30 31 32 32 31 31
17 17 16 17 16 15 16 15 15 14 13 16 21 21 19 16 13 10 10 10 9 8 7 7 6 6 5 5 4 3 3 4 3 3 6 7 7 8 8 9 11 12 12 11 11 10 11 11 12 14 14 16 18 18 19 21 22 23 25 25 25 26 26 25 25 25 28 31 33 33 35 36 35 34 34 34 33 33 32 32 32 33 32 31 30
17 17 17 17 16 16 16 15 15 14 13 17 21 21 18 17 14 10 9 8 8 7 7 6 5 5 5 5 4 3 3 5 4 2 2 4 5 7 8 7 8 11 13 14 14 13 11 10 11 13 14 15 17 18 19 20 21 23 24 24 24 25 26 27 26 28 29 30 32 32 33 35 35 35 35 35 34 34 33 32 32 32 30 29 29
17 17 17 17 16 17 16 15 15 14 14 18 22 20 17 16 14 10 7 7 8 7 7 6 5 5 4 4 4 4 2 3 3 3 2 2 3 4 5 5 4 7 11 12 13 13 11 9 10 13 13 14 15 17 18 18 19 21 23 24 24 25 27 27 25 27 27 27 30 31 30 33 35 35 36 36 36 35 34 32 31 30 29 31 32
17 17 17 17 17 17 17 15 15 14 14 18 22 20 17 15 13 10 6 6 7 7 7 7 5 5 4 4 3 3 3 2 3 5 3 2 2 3 4 4 4 4 7 10 12 13 12 10 10 11 12 13 15 16 17 18 18 20 22 22 23 25 26 25 24 25 24 24 29 30 28 32 35 35 36 37 36 35 34 31 31 31 32 33 32
17 16 16 17 16 17 17 15 15 13 14 19 21 20 18 16 14 12 8 7 8 8 8 8 6 5 5 4 4 3 3 1 3 5 5 3 2 3 4 4 4 4 5 10 14 15 16 14 13 14 15 18 21 21 20 22 22 22 21 20 21 24 24 23 23 25 24 23 28 31 30 31 34 34 36 37 36 34 33 32 32 34 35 34 30
16 15 16 16 16 17 16 16 15 13 14 19 21 20 18 17 15 12 9 8 8 8 8 8 7 6 5 5 4 3 3 2 2 4 5 5 3 4 5 4 5 5 7 10 12 14 17 17 17 18 20 21 24 23 22 24 25 23 21 20 22 24 23 22 21 25 26 22 26 32 31 31 33 33 34 36 35 32 31 33 34 35 34 32 30
16 15 15 15 15 16 16 16 15 13 14 19 22 20 19 19 17 14 11 9 10 9 8 8 8 7 7 7 6 4 3 2 1 3 4 5 3 4 4 4 5 6 9 11 11 14 17 17 16 18 19 20 21 20 20 23 24 22 19 20 22 23 22 22 22 24 24 21 26 33 31 31 34 33 33 34 32 29 31 33 34 34 32 31 31
17 15 14 14 14 15 16 16 16 14 14 19 23 22 21 21 19 16 13 12 12 11 10 10 9 8 8 8 7 6 5 3 2 3 3 4 3 3 4 5 5 6 9 11 11 13 15 15 15 16 16 16 17 17 19 21 22 21 19 19 21 21 21 22 23 22 18 18 27 34 31 30 33 33 32 29 23 25 33 36 35 34 33 33 34
Wind_Direction
170 176 171 166 150 137 141 129 116 103 88 75 60 46 46 43 34 25 29 48 52 42 33 32 31 29 28 31 37 43 45 45 47 50 63 68 55 46 54 59 62 72 74 67 58 54 50 47 43 36 27 23 19 16 12 6 2 354 347 340 330 328 324 316 307 297 293 292 292 290 287 287 292 290 285 287 289 287 288 284 274 270 272 271 268
173 177 171 158 137 125 124 111 97 79 68 66 55 45 45 43 33 26 28 35 42 37 28 31 35 37 37 39 47 51 54 53 48 49 67 70 54 49 56 67 79 82 89 91 83 72 65 66 63 55 45 39 37 36 33 28 23 14 9 10 5 357 348 338 324 309 299 294 289 287 286 284 285 286 284 285 288 283 279 284 281 272 267 269 269
171 176 168 145 127 123 119 106 82 64 62 59 53 52 49 43 36 33 31 31 39 36 30 35 37 41 46 51 57 61 62 62 58 55 68 69 59 58 53 53 70 85 96 92 86 78 69 76 73 62 53 46 45 43 39 36 33 27 26 33 33 27 17 7 355 341 328 311 298 291 289 289 287 287 286 285 286 283 279 279 281 279 270 266 269
160 171 161 144 132 125 122 112 88 70 62 57 59 59 55 51 43 35 32 34 39 36 36 41 41 43 51 62 68 71 71 70 70 68 70 70 67 72 60 49 50 57 74 74 61 58 49 59 67 61 52 46 45 43 38 35 35 32 30 35 36 31 27 22 17 11 3 349 331 316 307 301 295 291 287 285 283 281 283 280 277 280 277 269 265
157 169 162 149 137 130 131 123 103 78 64 59 59 60 61 55 44 39 36 36 39 33 34 44 48 53 62 73 75 75 77 75 75 74 73 74 72 72 67 58 48 42 44 46 47 47 39 38 45 49 47 45 41 37 34 31 31 31 26 21 20 19 20 21 18 15 15 11 0 348 338 322 307 297 288 285 283 278 278 278 276 276 277 276 268
162 163 157 148 142 140 135 120 101 82 69 59 56 58 56 43 34 39 37 37 41 34 35 50 62 72 77 81 81 80 80 79 77 75 74 74 72 68 62 58 56 51 42 37 38 40 40 37 32 31 34 41 39 32 30 25 21 24 21 11 360 0 6 10 9 8 10 10 5 1 358 346 333 323 308 294 286 280 276 276 277 277 275 273 271
157 155 152 147 145 137 125 107 91 80 69 61 60 57 52 40 28 31 35 37 39 40 48 64 78 85 86 84 84 84 81 79 76 74 73 70 68 65 60 56 55 55 48 37 31 31 35 34 29 26 24 30 35 31 29 23 13 13 18 13 359 354 359 358 354 354 356 1 1 0 3 359 351 346 336 320 303 291 282 277 274 273 274 271 269
147 151 149 143 140 125 114 99 81 76 72 69 65 58 57 43 29 33 38 38 41 54 65 81 92 90 87 85 83 83 82 79 76 71 69 67 66 62 59 56 51 48 45 38 30 23 25 30 27 23 20 22 26 28 28 27 23 19 20 16 5 360 360 356 348 344 344 351 354 352 356 1 358 354 350 343 333 320 304 294 283 272 268 268 269
153 152 145 139 135 119 104 89 73 67 70 73 69 62 62 42 28 39 45 46 48 73 88 95 96 91 85 83 82 82 81 77 73 69 66 65 65 62 58 53 47 44 40 36 34 25 20 25 24 16 15 18 18 19 21 23 24 23 22 19 13 9 5 2 357 349 342 339 342 339 341 356 359 357 356 351 346 345 341 336 325 300 273 263 265
155 149 141 133 121 112 104 93 81 72 72 78 76 64 61 45 26 31 45 61 72 96 107 106 100 95 87 82 80 79 78 75 71 68 66 64 62 62 59 54 49 45 42 37 35 32 25 25 25 14 7 14 18 16 14 16 19 20 19 19 17 12 8 7 2 357 350 340 334 332 332 347 354 353 354 350 346 346 344 343 343 333 302 269 261
146 142 132 124 113 109 111 102 93 88 82 81 80 63 43 38 28 27 46 75 93 112 117 115 106 97 89 82 79 78 75 72 72 69 66 63 60 61 60 57 53 48 45 41 36 35 32 28 27 20 9 10 16 18 16 13 15 17 17 17 16 12 9 8 6 1 357 351 341 333 331 337 343 346 349 347 345 344 341 340 342 341 330 295 264
132 130 124 121 120 117 113 101 90 84 76 58 62 53 32 24 28 35 64 85 98 119 126 123 111 99 91 84 77 75 75 72 72 70 65 62 60 60 61 60 57 51 47 44 40 36 34 30 26 24 17 10 11 15 18 13 12 16 16 15 15 13 10 7 7 5 1 358 353 345 340 336 333 333 337 338 337 336 336 339 341 339 338 324 283
134 133 128 123 121 115 101 93 84 63 60 59 56 53 41 33 41 59 82 96 104 125 138 135 124 112 101 94 84 74 73 73 69 69 67 64 64 62 62 62 60 55 50 46 44 39 35 32 27 23 20 15 10 11 15 11 9 14 13 12 14 12 9 6 4 4 1 360 358 353 349 347 341 335 333 332 334 334 329 330 335 334 334 333 317
145 139 126 121 115 108 100 100 98 70 52 54 57 55 51 58 92 86 84 94 106 132 154 160 159 153 141 125 110 89 81 77 68 67 67 66 68 66 64 62 60 58 53 49 46 42 39 33 30 27 21 19 15 12 14 8 7 11 8 8 12 11 8 6 3 1 358 356 356 353 351 353 350 344 341 339 341 341 328 321 325 327 330 332 324
147 137 123 133 122 113 114 106 99 79 35 20 44 65 94 105 108 102 95 98 101 122 171 198 232 189 176 181 159 141 126 98 78 68 68 69 69 66 63 61 59 58 55 51 47 43 41 35 31 29 23 21 17 14 14 8 6 7 2 2 8 10 6 5 2 359 355 352 351 350 350 352 350 347 346 345 345 347 337 325 322 321 327 331 323
161 182 214 223 145 120 120 99 69 72 69 73 91 92 102 105 96 94 98 106 102 98 155 211 279 261 210 231 191 171 160 124 104 81 74 73 68 65 62 60 59 57 54 50 47 43 39 35 29 25 22 19 17 14 13 8 5 4 360 359 5 8 5 3 1 358 354 351 348 346 346 346 347 345 344 344 343 344 344 337 329 324 324 329 326
215 231 208 199 152 130 117 103 82 78 90 96 97 93 93 96 94 94 88 93 106 92 91 131 268 276 303 312 227 194 113 136 130 91 81 76 69 69 62 59 58 54 55 50 45 42 34 30 24 19 17 15 14 11 7 7 4 3 359 356 1 6 3 1 359 356 352 349 346 344 342 341 342 341 340 340 338 338 340 339 336 331 327 328 328
192 162 137 141 135 123 107 97 90 87 93 97 95 92 90 91 89 92 91 87 101 101 84 80 86 81 37 26 7 18 77 156 165 109 105 90 71 70 63 61 59 54 56 51 45 39 27 21 16 13 10 8 8 5 2 2 359 360 355 350 356 1 359 358 357 354 351 348 345 342 339 338 338 338 337 335 334 334 335 335 335 333 329 326 326
128 124 123 127 115 108 103 96 96 93 94 96 92 89 91 97 99 97 99 94 97 106 99 87 80 68 57 59 58 47 55 114 151 133 133 107 83 81 71 63 60 55 52 47 43 35 24 16 12 11 9 6 4 0 359 356 354 356 348 346 353 358 356 355 353 350 348 345 342 339 336 335 334 335 334 331 330 331 331 331 331 330 329 324 321
125 128 120 117 107 103 101 97 96 92 92 96 95 95 96 102 110 107 102 96 96 107 105 100 94 78 65 65 66 63 59 52 43 37 118 121 123 113 96 82 68 56 47 43 37 27 20 13 9 9 7 5 3 359 357 353 352 353 345 346 353 355 354 352 348 346 344 341 339 336 333 332 331 331 330 328 327 327 327 328 327 326 326 325 320
130 124 116 110 106 104 103 102 101 94 93 98 101 104 104 103 105 106 105 101 95 99 103 103 103 95 83 77 74 73 69 62 51 42 52 94 128 128 130 127 91 57 38 34 30 25 19 10 7 8 6 3 0 358 355 350 348 348 345 348 352 353 353 350 346 344 342 339 336 334 332 329 328 328 326 325 324 324 324 323 323 323 321 321 322
125 117 112 108 105 104 103 105 108 104 100 101 103 104 106 109 110 109 109 104 96 93 96 98 95 88 82 81 79 77 74 69 60 56 59 70 95 107 111 120 100 67 43 25 22 22 19 12 7 8 6 2 358 355 351 347 341 340 346 350 350 351 353 349 344 342 340 337 334 333 332 328 326 324 324 323 322 322 321 321 320 320 319 318 320
126 119 114 109 107 107 107 109 110 106 101 99 99 101 104 108 109 109 107 101 96 93 89 89 88 82 76 73 72 69 69 67 57 53 59 65 81 92 78 71 80 76 59 34 24 17 14 11 6 3 2 358 355 351 345 343 332 329 342 348 347 347 347 343 340 338 338 336 334 333 330 326 324 323 323 322 321 320 319 320 319 317 319 318 317
131 124 119 114 111 110 110 111 109 106 104 102 103 105 105 105 104 103 102 96 92 91 88 86 86 82 78 75 74 72 68 65 57 52 50 46 47 63 66 54 65 72 57 46 38 21 12 8 3 0 358 354 351 347 340 339 328 324 336 341 341 341 337 333 334 335 335 336 334 333 330 325 324 323 323 322 321 321 319 319 319 318 318 316 314
137 129 123 119 115 114 113 113 113 112 111 109 108 108 106 106 104 99 95 91 90 91 89 86 85 85 82 79 77 74 69 62 57 54 48 43 43 47 56 48 41 53 58 53 34 21 13 8 3 358 357 353 348 344 338 336 326 325 336 338 335 334 329 327 332 332 333 333 333 333 330 327 326 323 323 322 320 320 319 318 318 317 315 314 313
137 130 126 123 120 120 120 117 116 116 116 114 112 110 106 104 103 98 93 91 91 90 89 87 85 84 84 83 79 74 69 61 56 54 48 46 42 26 20 57 58 40 52 54 34 22 12 7 5 359 357 353 347 342 336 336 326 325 336 336 328 327 326 327 330 330 331 332 331 331 330 329 327 325 324 323 321 319 318 317 316 315 313 311 312
135 131 128 127 123 122 122 119 118 117 118 120 117 112 107 104 102 99 96 94 94 91 90 89 86 84 84 83 80 73 67 61 57 56 51 47 43 26 12 19 74 50 42 44 36 24 11 4 3 1 357 350 347 342 334 335 328 326 334 332 322 324 326 326 327 329 331 332 330 329 329 328 326 325 324 322 319 317 315 315 313 313 312 310 309
135 133 131 129 126 124 121 118 118 119 118 119 117 112 108 106 104 101 99 98 96 94 91 89 86 85 83 82 80 74 67 63 60 58 54 50 45 38 30 24 22 28 31 32 31 21 9 2 357 358 356 349 346 342 336 335 330 329 333 329 322 323 323 324 327 330 331 331 330 329 328 327 325 324 322 319 316 315 314 313 312 310 310 309 307
137 135 133 130 128 126 122 120 120 121 120 119 117 115 111 108 107 105 103 102 99 95 93 91 89 86 84 82 80 76 70 67 64 60 58 56 49 45 43 34 21 17 17 15 21 11 2 360 354 350 351 349 344 339 336 334 329 330 331 327 323 321 323 326 328 330 330 329 329 328 326 326 325 324 321 318 316 315 313 312 311 309 307 307 306
139 137 135 132 130 127 123 124 125 125 124 123 120 118 114 111 110 107 106 106 102 99 96 94 92 88 86 83 81 79 75 71 69 65 60 59 55 49 47 40 31 27 12 356 17 11 355 352 352 345 343 343 340 334 332 329 328 330 330 326 324 322 324 327 328 328 328 327 324 322 322 324 325 324 322 319 317 314 313 311 309 309 306 304 303
142 140 138 135 132 129 128 130 131 130 128 127 124 121 118 116 113 110 110 111 108 104 100 96 93 91 88 85 82 82 79 75 71 67 62 59 56 51 49 43 35 28 10 345 353 6 353 344 342 340 336 334 333 331 329 327 327 330 329 326 324 324 326 326 326 326 326 323 321 320 322 323 323 322 320 319 317 313 311 310 308 307 307 304 302
145 143 141 139 136 135 136 135 135 134 132 130 127 125 123 120 118 117 118 117 112 107 103 99 95 92 89 86 85 83 82 81 74 67 64 60 55 50 45 41 32 20 7 351 338 346 349 340 334 333 331 329 329 331 331 329 328 330 330 327 325 326 326 325 325 326 324 322 322 323 324 324 322 321 320 319 317 314 312 312 311 309 308 306 305
148 146 143 142 141 140 140 139 139 138 135 134 132 130 128 125 124 125 123 119 113 109 106 102 97 94 92 89 87 84 81 80 75 70 66 60 57 52 43 38 31 16 3 352 339 336 342 341 333 330 331 331 330 333 333 330 330 331 330 328 328 328 327 325 325 326 326 324 324 325 326 326 325 324 323 321 319 318 317 315 314 312 309 308 307
151 149 146 145 145 143 143 143 142 141 139 138 137 136 135 133 131 129 126 120 115 112 109 105 101 98 97 94 91 87 82 78 72 68 65 59 56 51 42 35 24 13 0 347 338 335 336 337 333 331 333 334 331 333 335 332 330 331 330 330 330 329 328 326 325 326 327 327 326 327 329 331 331 329 327 326 323 321 320 318 316 314 311 310 309
153 152 151 149 148 147 147 147 146 145 144 142 143 143 142 141 136 131 126 120 117 115 112 109 108 105 102 98 94 88 83 79 73 66 61 57 53 45 37 31 15 3 353 340 336 334 330 330 333 333 333 333 332 332 334 334 332 331 330 331 330 329 327 327 326 326 325 326 329 331 332 334 334 333 330 327 324 322 320 318 316 314 312 311 310
156 156 154 152 152 151 151 151 150 150 150 148 149 149 146 142 137 131 125 120 117 117 115 114 113 110 106 100 96 92 85 80 74 66 57 52 51 41 26 20 13 0 349 338 335 331 325 324 330 332 332 331 331 333 335 335 334 333 331 330 329 328 327 327 327 327 326 327 332 334 334 333 332 330 328 326 325 323 320 317 315 314 314 314 312
159 158 157 156 157 156 156 156 155 155 155 155 154 151 146 142 137 131 125 120 118 119 118 117 115 112 108 102 95 91 86 80 73 63 52 46 44 36 22 15 10 358 347 342 338 332 326 326 329 331 332 332 331 334 338 338 335 334 332 330 329 328 328 328 328 328 328 330 333 336 336 334 331 329 328 327 326 324 322 320 318 317 317 315 312
161 161 162 161 161 161 160 160 159 159 159 159 157 153 148 144 139 131 125 122 120 121 120 119 119 114 108 102 93 87 82 77 70 56 44 41 36 25 15 10 5 355 346 344 340 336 333 331 332 334 335 336 335 336 341 340 336 335 333 331 331 330 330 330 331 331 332 332 333 335 336 334 332 330 328 328 327 324 323 323 321 319 317 314 312
164 165 165 164 164 164 163 162 162 162 161 160 157 154 151 147 141 135 129 126 124 124 124 123 121 116 107 99 91 84 79 74 66 49 34 30 27 22 16 7 359 353 350 348 345 342 341 338 338 340 338 338 338 338 340 340 338 337 336 333 332 333 333 333 334 334 334 334 334 335 336 335 333 331 329 328 327 325 323 321 319 318 317 315 314
168 169 168 166 166 166 165 165 164 164 162 160 158 157 155 151 146 140 135 132 129 128 129 128 124 118 109 99 92 87 82 78 70 56 45 37 23 16 15 8 1 356 352 351 350 348 348 345 343 343 340 339 341 340 339 342 342 340 338 334 330 331 333 333 334 335 336 337 336 336 337 337 335 332 331 330 328 326 324 320 317 317 318 316 313
171 172 170 169 168 167 168 167 166 166 165 163 164 163 159 155 150 146 141 138 136 135 136 135 131 125 113 101 97 95 87 78 70 59 50 46 39 28 17 8 3 1 357 355 355 354 351 349 347 345 342 342 344 343 342 345 343 337 335 333 329 330 332 331 333 336 337 338 337 336 336 336 334 331 331 330 329 327 324 320 319 319 317 314 311
173 172 172 172 172 170 170 168 168 169 169 170 171 167 163 160 155 150 148 145 142 142 141 140 140 137 127 115 105 91 77 67 62 55 50 47 44 40 32 24 16 10 4 360 360 359 354 350 349 346 342 342 344 343 342 342 339 335 333 332 330 331 333 333 334 337 340 341 338 334 335 336 333 330 330 330 328 327 325 321 319 319 316 314 313
173 174 175 176 175 175 172 171 172 172 173 179 178 171 166 162 158 154 153 151 149 149 147 147 150 149 144 136 118 89 72 65 54 44 43 47 52 52 48 40 35 31 22 11 4 1 355 351 348 345 342 341 340 341 342 339 337 334 333 331 331 333 335 335 334 335 339 343 340 335 335 337 334 330 329 330 329 327 324 320 320 319 317 316 315
174 176 178 179 178 177 175 175 176 175 180 190 184 175 169 164 159 158 158 157 157 156 156 156 158 160 159 150 135 112 94 93 86 36 28 39 50 52 46 38 35 36 35 29 21 10 356 346 344 344 342 339 337 340 341 337 334 331 330 331 333 332 332 333 331 329 333 340 341 335 333 337 336 330 328 329 330 327 323 321 320 319 316 316 317
177 178 181 181 179 179 178 179 180 178 186 193 185 175 173 168 162 163 165 164 166 165 163 164 163 166 171 164 154 146 98 74 70 49 21 25 26 30 32 28 23 23 24 25 23 19 7 347 337 340 341 338 336 338 338 334 331 330 329 331 332 331 330 330 328 327 331 339 343 337 332 335 337 332 328 330 330 328 325 322 320 318 319 321 322
180 182 183 183 181 182 181 181 182 181 188 193 183 177 179 177 173 175 177 174 176 176 173 174 173 174 178 175 165 157 133 80 53 40 34 14 7 21 31 36 32 25 23 21 18 16 11 352 337 336 338 339 337 335 336 335 331 330 328 326 328 330 328 326 325 328 333 340 345 340 333 335 338 334 330 331 331 329 328 325 324 325 326 326 323
182 184 185 185 184 185 183 183 183 181 190 193 186 182 187 187 186 194 199 194 192 190 187 186 186 185 184 183 176 156 140 110 52 50 55 22 9 25 30 34 42 43 31 23 22 23 15 360 346 340 338 346 348 343 342 341 334 329 325 322 325 329 328 326 329 334 336 341 348 346 336 334 338 335 330 331 332 332 332 330 329 330 328 325 324
184 186 187 187 187 186 185 185 182 180 190 194 189 188 192 192 194 202 212 215 209 203 198 197 197 198 197 195 190 174 163 150 28 42 68 73 28 15 25 30 35 42 23 12 16 20 15 7 0 355 353 355 355 352 348 345 340 332 326 326 332 334 333 333 336 338 339 343 351 351 339 333 339 336 329 330 332 333 334 334 332 331 330 329 328
183 185 186 187 189 188 187 186 182 180 188 192 190 191 193 192 193 199 209 220 222 214 206 204 206 206 208 209 201 184 183 193 359 21 59 75 42 6 20 23 20 30 19 4 3 3 2 1 356 353 354 353 351 350 346 344 344 340 334 335 339 339 338 338 338 339 340 344 352 352 341 335 339 336 329 329 332 333 336 336 334 333 332 332 330
183 184 186 186 186 187 186 186 185 182 184 190 190 190 191 190 190 194 202 211 216 216 211 211 214 213 214 217 205 187 201 225 331 10 49 66 32 357 13 11 8 20 11 359 357 352 350 351 347 344 346 346 345 345 343 342 346 346 340 338 340 340 339 339 337 337 338 345 353 351 343 338 340 339 334 332 332 336 340 339 337 336 335 334 332
187 184 185 185 183 185 186 186 186 183 183 190 193 193 192 192 193 196 203 206 204 206 208 210 214 215 217 222 210 194 202 230 298 355 34 55 28 349 358 1 1 7 360 350 348 344 339 338 338 337 340 342 342 343 344 344 347 348 345 341 340 340 338 336 336 337 338 344 351 349 344 342 343 342 340 338 334 335 340 341 340 339 338 336 333